Toussaint Louverture International Airport
MTPP : now visible

Airfield :











YOU CAN JOIN US ON...

 
LOGIN :

Register | Disclaimer

   EN    FR    IT 

 









Legend :    VFR   Marginal VFR   IFR   Intensive IFR   Very Intensive IFR
Visi :
Ceiling :
>= 8 km
>= 3000ft
5 to 8 km
1000 to 3000 ft
1500m to 5 km
500 to 1000 ft
800 to 1500m
200 to 500 ft
< 800m
< 200 ft
Symbols :   Thunderstorms  Fog  Heavy snow  Heavy precipitations  Wind > 20 kt






- Airport Elevation : 122 ft
- IATA code : PAP


MTPP - Toussaint Louverture International

CURRENT METAR :
  • 242159Z AUTO 32007KT 290V360 9000 ////// 32/23 Q1011 A2986 NOSIG

EXPIRED METARs :
  • 242050Z 32008KT 290V010 9000 FEW026 BKN200 33/23 Q1011 A2986
  • 241955Z 31011KT 9000 FEW027 BKN200 33/22 Q1011 A2986

Expired Forecast.
MTEG FIR / North America



MET'MAP, your aeronautical weather chart ! - Copyright ORBIFLY December 2007 - Disclaimer

ORBIFLY MET'MAP TEAM :

Programming & Development : Alexandra Zaïnal
Concept & original design : Baudouin d'Aumeries
Assistance for programming : Marc-Olivier Méhu
Technical & hardware support : Manuel Goepfert

Contact : metmap@orbifly.com




SOURCES & CREDITS :

   NOAA       Earth
Advisory